Home   Weather   Darmstadt   Past weeks
Flag for Germany

Past Weather in Darmstadt, Hesse, Germany — Yesterday and Last 2 Weeks

Now
50 °F

Passing clouds.


Feels Like: 50 °F
Forecast: 65 / 50 °F
Wind: 2 mph from Southwest

Location: Frankfurt-M-Flughafen Airport

Current Time: Oct 22, 2019 at 3:26:26 am

Latest Report: Oct 22, 2019 at 2:50 am


Visibility: N/A

Pressure: 30.21 "Hg

Humidity: 100%

Dew Point: 50 °F

Location of DarmstadtLocation

Past Weather in Darmstadt — Graph

°F

Darmstadt Temperature Yesterday

Maximum temperature yesterday: 64 °F (at 12:20 pm)
Minimum temperature yesterday: 55 °F (at 3:20 am)
Average temperature yesterday: 59 °F

High & Low Weather Summary for the Past Weeks

 TemperatureHumidityPressure
High77 °F (Oct 13, 2:50 pm)100% (Oct 7, 2:20 am)30.21 "Hg (Oct 7, 2:20 am)
Low46 °F (Oct 7, 2:20 am)47% (Oct 14, 3:20 pm)29.71 "Hg (Oct 15, 8:20 am)
Average57 °F86%29.90 "Hg
* Reported Oct 7 2:20 am — Oct 22 2:20 am, Darmstadt. Weather by CustomWeather, © 2019

Note: Actual official high and low records may vary slightly from our data, if they occured in-between our weather recording intervals... More about our weather records

Advertising

Darmstadt Weather History for the Previous 24 Hours

Scroll right to see more
 ConditionsComfort  
Time TempWeatherWind HumidityBarometerVisibility
2:20 am
Tue, Oct 22
52 °FPassing clouds.2 mph94%30.21 "HgN/A
1:50 am54 °FPassing clouds.2 mph88%30.21 "HgN/A
1:20 am54 °FPassing clouds.3 mph94%30.21 "HgN/A
12:50 am52 °FPassing clouds.5 mph94%30.21 "HgN/A
12:20 am55 °FPassing clouds.2 mph82%30.21 "HgN/A
11:50 pm
Mon, Oct 21
55 °FLight rain. Passing clouds.3 mph82%30.21 "HgN/A
11:20 pm55 °FLight rain. Passing clouds.5 mph82%30.21 "HgN/A
10:50 pm57 °FPassing clouds.9 mph82%30.18 "HgN/A
10:20 pm57 °FPassing clouds.7 mph82%30.18 "HgN/A
9:50 pm57 °FPassing clouds.7 mph88%30.18 "HgN/A
9:20 pm57 °FPassing clouds.6 mph88%30.18 "HgN/A
8:50 pm57 °FPassing clouds.6 mph88%30.18 "HgN/A
8:20 pm57 °FPassing clouds.5 mph88%30.15 "HgN/A
7:50 pm57 °FPassing clouds.6 mph88%30.15 "HgN/A
7:20 pm57 °FPassing clouds.2 mph88%30.15 "HgN/A
6:50 pm59 °FPassing clouds.3 mph82%30.15 "HgN/A
6:20 pm59 °FPassing clouds.6 mph82%30.12 "HgN/A
5:50 pm59 °FPassing clouds.8 mph82%30.12 "HgN/A
5:20 pm61 °FPassing clouds.9 mph77%30.12 "HgN/A
4:50 pm61 °FPassing clouds.7 mph77%30.09 "HgN/A
4:20 pm61 °FPassing clouds.7 mph77%30.09 "HgN/A
3:50 pm61 °FPassing clouds.10 mph77%30.09 "HgN/A
3:20 pm61 °FPassing clouds.8 mph77%30.09 "HgN/A
2:50 pm61 °FLight rain. Passing clouds.9 mph77%30.09 "HgN/A
2:20 pm63 °FPassing clouds.8 mph73%30.09 "HgN/A
1:50 pm63 °FLight rain. Passing clouds.8 mph77%30.09 "HgN/A
1:20 pm64 °FPassing clouds.13 mph68%30.09 "HgN/A
12:50 pm63 °FPassing clouds.17 mph73%30.09 "HgN/A
12:20 pm64 °FPassing clouds.9 mph78%30.07 "HgN/A
11:50 am63 °FPassing clouds.5 mph83%30.07 "HgN/A
11:20 am63 °FPassing clouds.6 mph88%30.07 "HgN/A
10:50 am61 °FLight rain. Passing clouds.7 mph88%30.04 "HgN/A
10:20 am59 °FPassing clouds.7 mph94%30.04 "HgN/A
9:50 am59 °FPassing clouds.6 mph94%30.01 "HgN/A
9:20 am59 °FLight rain. Passing clouds.6 mph94%30.01 "HgN/A
8:50 am59 °FLight rain. Passing clouds.6 mph88%30.01 "HgN/A
8:20 am59 °FLight rain. Passing clouds.6 mph88%29.98 "HgN/A
7:50 am57 °FPassing clouds.7 mph94%29.98 "HgN/A
7:20 am57 °FPassing clouds.8 mph94%29.95 "HgN/A
6:50 am57 °FPassing clouds.6 mph94%29.95 "HgN/A
6:20 am55 °FPassing clouds.2 mph94%29.92 "HgN/A
5:50 am55 °FClear.3 mph100%29.95 "Hg10 mi
4:50 am55 °FLight fog.1 mph100%29.89 "HgN/A
4:20 am55 °FClear.1 mph100%29.89 "Hg10 mi
3:50 am55 °FLight rain. Clear.2 mph100%29.89 "HgN/A
3:20 am55 °FPassing clouds.3 mph100%29.89 "HgN/A
Weather by CustomWeather, © 2019

See weather overview